SL-8 DEB, 12793

Orbit data source: Space-Track

SL-8 DEB, 12793 is space debris in LEO originally from a launch on Fri, 28 Aug 1981 UTC launched from the Plesetsk Missile And Space Complex (PKMTR). Debris objects in space refer to the collection of defunct objects orbiting the Earth. Examples of debris include non-operational satellites, rocket bodies, and fragments generated from explosions, collisions, or faulty payload assembly.

Loading next visibility...
Identifier
12793, 1981-084C
Orbit
LEO
Country
Flag of CISCIS
Related business
Manufacturer
Unknown
Mission
Spacecraft
Bus & Motor
Unknown
Mass
Unknown
Launch date (UTC)
1981-08-28 (45 years ago)
Launch vehicle
Unknown
Launch site
Plesetsk Missile And Space Complex (PKMTR)
Object type
Payload
Rocket body
Debris
Shape & HBR
Unknown shape, 0.1 m
Radar Cross Section
Small (<0.1 m²)

Expand to show TLE details & history
Last TLE update: 16 hours ago

TLE from 16 hours ago
0 SL-8 DEB
1 12793U 81084C   26129.78661089  .00002418  00000-0  34179-3 0  9990
2 12793  74.0232 260.1770 0001438 276.5875  83.5136 14.77736649362956
Epoch: 2026-05-09T18:52Z
TLE epoch observation values (Epoch: 2026-05-09T18:52:43.180Z)
Latitude
-0.00007°
Longitude
109.39802°
Altitude
639.024 km
Speed
7.539 km/s
True Right ascension
17h 20m 42s
True Declination
0° 00' 00"
Sunlit
Object was in full shadow at epoch
Visualization orbit readout
Latitude
Unknown
Longitude
Unknown
Altitude
Unknown
Speed
Unknown
Apparent Right ascension
Unknown
Apparent Declination
Unknown
Sunlit
N/A
Visualization observer readout
Local Sidereal Time
18:58:46
Azimuth
Unknown
Elevation
Unknown
Doppler factor
Unknown
Orbital elements
Apogee altitude
635.065 km
Perigee altitude
633.048 km
Semi-major axis
7,012.194 km
Eccentricity
0.00014
Inclination
74.0232°
RAAN
260.177°
Arg. of periapsis
276.5875°
True anomaly
83.52997°
Mean anomaly
83.5136°
Eccentric anomaly
83.52179°
Mean motion
3.69626 °/min
Orbital period
97.4 mins
BSTAR
0.00034179
Loading maneuver chart data...
Computing Atmospheric mass density...
Loading historical data...
Loading historical data...
Loading historical data...
Loading historical data...
Loading historical data...
Loading historical data...
Loading historical data...
Other satellites on launch #84 in the year 1981 (1981-08-28 UTC)

Documentation

Showing up to 5 results
|